Location: Marstown
(39.5056°N, 77.0820°W)
Time: 11:24:30
(UTC-05:00)

N. Korean satellite - Visible Passes

Search period start: 21 January 2018 00:00
Search period end: 31 January 2018 00:00
Orbit: 458 x 515 km, 97.2° (Epoch: 20 January)

Date Brightness Start Highest point End Pass type
(mag) Time Alt. Az. Time Alt. Az. Time Alt. Az.
21 Jan 8.3 06:25:49 10° NNE 06:29:01 35° E 06:32:12 10° SSE visible
21 Jan 8.4 18:34:17 10° SSW 18:37:36 34° W 18:40:53 10° NNW visible
22 Jan 9.7 06:02:51 10° NE 06:05:14 17° E 06:07:37 10° SE visible
22 Jan 6.7 18:10:19 10° S 18:13:54 76° W 18:17:27 10° NNW visible
23 Jan 6.7 17:46:49 10° SSE 17:50:16 49° ENE 17:53:42 10° N visible
24 Jan 6.7 06:48:03 10° NNE 06:51:31 77° ESE 06:54:58 10° S visible
24 Jan 9.6 18:57:41 10° SW 19:00:10 18° W 19:02:39 10° NW visible
25 Jan 8.4 06:24:36 10° NNE 06:27:48 34° E 06:31:00 10° SSE visible
25 Jan 8.3 18:33:07 10° SSW 18:36:24 35° W 18:39:40 10° NNW visible
26 Jan 9.8 06:01:39 10° NE 06:04:02 17° E 06:06:23 10° SE visible
26 Jan 6.7 18:09:09 10° S 18:12:41 78° WSW 18:16:13 10° NNW visible
28 Jan 6.8 06:46:48 10° NNE 06:50:16 75° E 06:53:46 10° S visible
28 Jan 9.6 18:56:27 10° SW 18:58:56 18° W 19:01:25 10° NW visible
29 Jan 8.5 06:23:22 10° NNE 06:26:33 33° E 06:29:46 10° SSE visible
29 Jan 8.3 18:31:54 10° SSW 18:35:09 36° W 18:38:25 10° NNW visible
30 Jan 9.8 06:00:25 10° NE 06:02:46 17° E 06:05:06 10° SE visible
30 Jan 6.6 18:07:55 10° S 18:11:26 81° WSW 18:14:55 10° NNW visible
